Home > Time Zones > World Clock > Weather > Serbia > Niš > Past weeks

Flag for Serbia Weather past 2 weeks in Niš, Serbia

Now
63 °F

Passing clouds.


Feels Like: 63 °F
Forecast: 62 / 80 °F
Wind: 5 mph from Southeast

Location: Nis Airport

Current Time: Sep 20, 2014 at 2:06:35 AM

Latest Report: Sep 20, 2014 at 1:30 AM


Visibility: N/A

Pressure: 30.12 "Hg

Humidity: 77%

Dew point: 55 °F

Location of NišLocation

Historic Weather in Niš — Graph

°F

Niš temperature yesterday

Maximum temperature yesterday: 81 °F (at 4:00 PM)
Minimum temperature yesterday: 52 °F (at 5:00 AM)
Average temperature yesterday: 65 °F

Past Weeks' High & Low Weather Summary

 TemperatureHumidityPressure
High84 °F (Sep 13, 1:30 PM)100% (Sep 5, 7:00 AM)30.21 "Hg (Sep 5, 7:00 AM)
Low48 °F (Sep 18, 5:30 AM)39% (Sep 18, 3:30 PM)29.83 "Hg (Sep 6, 6:00 AM)
Average67 °F77%29.98 "Hg
* Reported Midnight between Sep 4 and Sep 5 — Sep 20 12:30 AM, Niš, Weather by CustomWeather, © 2014

Note: Actual official high and low records may vary slightly from our data, if they occured in-between our weather recording intervals... More about our weather records

Advertising

Niš weather history for previous 24 hours

 ConditionsComfort  
Time TempWeatherWind HumidityBarometerVisibility
12:30 AM
Sep 20
63 °FClear.7 mph83%30.12 "Hg10 mi
12:00 AM64 °FClear.9 mph78%30.12 "Hg10 mi
11:30 PM
Sep 19
64 °FClear.7 mph78%30.12 "Hg10 mi
11:00 PM64 °FClear.3 mph78%30.12 "Hg10 mi
10:30 PM64 °FClear.2 mph78%30.12 "Hg10 mi
10:00 PM66 °FClear.2 mph73%30.12 "Hg10 mi
9:30 PM66 °FPassing clouds.3 mph73%30.12 "HgN/A
9:00 PM68 °FClear.6 mph69%30.12 "Hg10 mi
8:30 PM68 °FClear.8 mph73%30.12 "Hg10 mi
8:00 PM70 °FClear.6 mph69%30.12 "Hg10 mi
7:30 PM70 °FSunny.6 mph69%30.12 "Hg10 mi
7:00 PM72 °FSunny.7 mph61%30.12 "Hg10 mi
6:30 PM75 °FSunny.2 mph54%30.12 "Hg10 mi
6:00 PM77 °FSunny.2 mph51%30.12 "Hg10 mi
5:30 PM79 °FSunny.2 mph48%30.12 "Hg10 mi
5:00 PM81 °FPassing clouds.2 mph45%30.12 "HgN/A
4:30 PM81 °FPassing clouds.2 mph42%30.12 "HgN/A
4:00 PM81 °FPassing clouds.3 mph45%30.12 "HgN/A
3:30 PM79 °FPassing clouds.1 mph45%30.12 "HgN/A
3:00 PM79 °FPassing clouds.3 mph48%30.12 "HgN/A
2:30 PM79 °FPassing clouds.3 mph48%30.12 "HgN/A
2:00 PM79 °FPassing clouds.3 mph48%30.15 "HgN/A
1:30 PM77 °FPassing clouds.5 mph47%30.15 "HgN/A
1:00 PM75 °FSunny.3 mph54%30.15 "Hg10 mi
12:30 PM75 °FSunny.2 mph54%30.18 "Hg10 mi
12:00 PM73 °FSunny.1 mph53%30.18 "Hg10 mi
11:30 AM72 °FSunny.1 mph57%30.18 "Hg10 mi
11:00 AM70 °FSunny.2 mph60%30.21 "Hg10 mi
10:30 AM68 °FPassing clouds.3 mph64%30.21 "HgN/A
10:00 AM64 °FPassing clouds.3 mph73%30.21 "HgN/A
9:30 AM63 °FPassing clouds.3 mph73%30.21 "HgN/A
9:00 AM59 °FPassing clouds.5 mph82%30.21 "HgN/A
8:30 AM57 °FPassing clouds.5 mph88%30.21 "HgN/A
8:00 AM55 °FPassing clouds.3 mph94%30.21 "HgN/A
7:30 AM54 °FPassing clouds.5 mph94%30.21 "HgN/A
7:00 AM52 °FClear.2 mph94%30.21 "Hg10 mi
6:30 AM52 °FPassing clouds.3 mph94%30.21 "HgN/A
6:00 AM52 °FPassing clouds.3 mph100%30.18 "HgN/A
5:30 AM52 °FClear.6 mph94%30.18 "Hg10 mi
5:00 AM52 °FPassing clouds.3 mph94%30.18 "HgN/A
4:30 AM54 °FClear.1 mph88%30.18 "Hg10 mi
4:00 AM54 °FClear.1 mph88%30.18 "Hg10 mi
3:30 AM54 °FClear.2 mph88%30.18 "Hg10 mi
3:00 AM54 °FPassing clouds.3 mph94%30.18 "HgN/A
2:30 AM54 °FClear.5 mph88%30.18 "Hg10 mi
2:00 AM55 °FClear.1 mph88%30.18 "Hg10 mi
Weather by CustomWeather, © 2014

See weather overviewHow to use our weather pages